FW7102 Weather Reports


time (UTC)temp
F
wind
direction
speed
knots
gust
knots
rain 1hr
in
rain 24hr
in
rain mn
in
humidity
%
barometer
mb
20260508013258 74 0 3.5 9.6 0.00 0.00 0.00 59 1012.8
20260508012757 74 0 4.3 9.6 0.00 0.00 0.00 59 1012.8
20260508012258 75 0 3.5 8.7 0.00 0.00 0.00 59 1012.8
20260508011756 75 0 3.5 8.7 0.00 0.00 0.00 57 1012.7
20260508011527 75 0 3.5 8.7 0.00 0.00 0.00 58 1012.7
20260508010755 76 0 4.3 8.7 0.00 0.00 0.00 57 1012.7
20260508010254 76 0 4.3 9.6 0.00 0.00 0.00 57 1012.8
20260508005754 76 0 4.3 9.6 0.00 0.00 0.00 57 1012.7
20260508005251 76 0 3.5 9.6 0.00 0.00 0.00 56 1012.7
20260508004751 76 0 4.3 9.6 0.00 0.00 0.00 57 1012.6
20260508004245 76 0 4.3 9.6 0.00 0.00 0.00 57 1012.6
20260508003744 76 0 4.3 9.6 0.00 0.00 0.00 57 1012.6
20260508003244 76 0 5.2 10.4 0.00 0.00 0.00 56 1012.7
20260508002743 76 0 4.3 10.4 0.00 0.00 0.00 56 1012.7
20260508002238 76 0 4.3 10.4 0.00 0.00 0.00 55 1012.6
20260508001738 76 0 4.3 10.4 0.00 0.00 0.00 55 1012.7
20260508000739 76 0 4.3 11.3 0.00 0.00 0.00 56 1012.7
20260508000238 76 0 4.3 10.4 0.00 0.00 0.00 57 1012.7
20260507235738 76 0 5.2 10.4 0.00 0.00 0.00 57 1012.7
20260507235239 76 0 5.2 10.4 0.00 0.00 0.00 56 1012.8
20260507234738 77 0 5.2 12.2 0.00 0.00 0.00 56 1012.8
20260507234239 77 0 5.2 12.2 0.00 0.00 0.00 55 1012.7
20260507233739 77 0 6.1 13.0 0.00 0.00 0.00 55 1012.8
20260507233240 78 0 5.2 13.0 0.00 0.00 0.00 54 1012.8
20260507233006 78 0 4.3 10.4 0.00 0.00 0.00 54 1012.7
20260507232235 78 0 4.3 10.4 0.00 0.00 0.00 54 1012.8
20260507231735 78 0 4.3 10.4 0.00 0.00 0.00 55 1012.8
20260507231236 78 0 5.2 10.4 0.00 0.00 0.00 55 1012.7
20260507230730 78 0 5.2 10.4 0.00 0.00 0.00 53 1012.7
20260507230231 78 0 5.2 11.3 0.00 0.00 0.00 54 1012.7
20260507230002 78 0 6.1 11.3 0.00 0.00 0.00 54 1012.8
20260507225230 78 0 5.2 11.3 0.00 0.00 0.00 53 1012.8
20260507224730 78 0 5.2 11.3 0.00 0.00 0.00 53 1012.8
20260507224230 78 0 5.2 11.3 0.00 0.00 0.00 52 1012.9
20260507223231 78 0 5.2 11.3 0.00 0.00 0.00 53 1012.9
20260507222730 78 0 6.1 11.3 0.00 0.00 0.00 52 1013.0
20260507222501 78 0 5.2 11.3 0.00 0.00 0.00 51 1012.9
20260507221730 79 0 5.2 10.4 0.00 0.00 0.00 52 1013.0
20260507221224 79 0 6.1 12.2 0.00 0.00 0.00 51 1013.0
20260507220724 79 0 6.1 12.2 0.00 0.00 0.00 51 1013.1
20260507220221 79 0 6.1 13.9 0.00 0.00 0.00 51 1013.2
20260507215720 79 0 5.2 13.9 0.00 0.00 0.00 51 1013.3
20260507215219 79 0 5.2 11.3 0.00 0.00 0.00 51 1013.3
20260507214712 79 0 5.2 10.4 0.00 0.00 0.00 52 1013.3
20260507214212 79 0 6.1 10.4 0.00 0.00 0.00 52 1013.4
20260507213711 79 0 6.1 12.2 0.00 0.00 0.00 52 1013.5
20260507213211 79 0 5.2 12.2 0.00 0.00 0.00 52 1013.6
20260507212205 79 0 5.2 10.4 0.00 0.00 0.00 51 1013.6
20260507211705 80 0 4.3 10.4 0.00 0.00 0.00 52 1013.6
20260507211204 79 0 5.2 9.6 0.00 0.00 0.00 52 1013.5
20260507210704 79 0 5.2 10.4 0.00 0.00 0.00 53 1013.6
20260507210203 79 0 5.2 10.4 0.00 0.00 0.00 53 1013.7
20260507205700 79 0 4.3 10.4 0.00 0.00 0.00 52 1013.7
20260507205158 80 0 4.3 10.4 0.00 0.00 0.00 52 1013.8
20260507204658 80 0 4.3 10.4 0.00 0.00 0.00 52 1013.8
20260507204158 80 0 5.2 11.3 0.00 0.00 0.00 52 1013.8
20260507203652 80 0 4.3 11.3 0.00 0.00 0.00 52 1013.8
20260507203152 80 0 3.5 7.8 0.00 0.00 0.00 53 1013.8
20260507202651 80 0 4.3 9.6 0.00 0.00 0.00 52 1013.8
20260507202147 79 0 4.3 12.2 0.00 0.00 0.00 53 1013.8
20260507201917 79 0 4.3 12.2 0.00 0.00 0.00 53 1013.9
20260507201145 80 0 4.3 9.6 0.00 0.00 0.00 53 1014.0
20260507200641 80 0 4.3 9.6 0.00 0.00 0.00 53 1014.0
20260507200141 79 0 3.5 8.7 0.00 0.00 0.00 53 1014.1
20260507195640 79 0 4.3 9.6 0.00 0.00 0.00 53 1014.1
20260507195134 79 0 4.3 10.4 0.00 0.00 0.00 52 1014.2
20260507194634 79 0 3.5 10.4 0.00 0.00 0.00 51 1014.2
20260507194134 78 0 3.5 8.7 0.00 0.00 0.00 52 1014.2
20260507193628 78 0 3.5 8.7 0.00 0.00 0.00 53 1014.2
20260507193128 78 0 4.3 8.7 0.00 0.00 0.00 52 1014.3
20260507192629 78 0 3.5 8.7 0.00 0.00 0.00 52 1014.4
20260507192121 78 0 3.5 8.7 0.00 0.00 0.00 52 1014.4
20260507191623 78 0 2.6 8.7 0.00 0.00 0.00 53 1014.5
20260507191352 77 0 2.6 7.0 0.00 0.00 0.00 53 1014.5
20260507190616 77 0 2.6 7.8 0.00 0.00 0.00 54 1014.6
20260507190116 77 0 3.5 9.6 0.00 0.00 0.00 54 1014.7
20260507185845 77 0 3.5 9.6 0.00 0.00 0.00 53 1014.8
20260507185113 76 0 2.6 8.7 0.00 0.00 0.00 56 1014.8
20260507184613 76 0 2.6 8.7 0.00 0.00 0.00 54 1014.9
20260507184339 76 0 2.6 7.8 0.00 0.00 0.00 55 1015.1
20260507183608 75 0 3.5 7.8 0.00 0.00 0.00 57 1015.1
20260507183339 75 0 2.6 7.8 0.00 0.00 0.00 57 1015.2
20260507182606 75 0 2.6 7.0 0.00 0.00 0.00 56 1015.1
20260507182336 75 0 2.6 7.0 0.00 0.00 0.00 59 1015.1
20260507181830 74 0 1.7 7.0 0.00 0.00 0.00 59 1015.2
20260507181100 74 0 2.6 5.2 0.00 0.00 0.00 58 1015.2
20260507180559 73 0 2.6 7.0 0.00 0.00 0.00 60 1015.2
20260507180054 73 0 1.7 7.0 0.00 0.00 0.00 59 1015.4
20260507175553 73 0 1.7 4.3 0.00 0.00 0.00 60 1015.4
20260507175053 72 0 1.7 7.0 0.00 0.00 0.00 60 1015.3
20260507174552 72 0 2.6 7.0 0.00 0.00 0.00 61 1015.4
20260507174051 72 0 2.6 5.2 0.00 0.00 0.00 62 1015.4
20260507173816 72 0 1.7 7.0 0.00 0.00 0.00 61 1015.4
20260507173045 72 0 1.7 7.0 0.00 0.00 0.00 63 1015.4
20260507172545 71 0 1.7 4.3 0.00 0.00 0.00 64 1015.4
20260507172312 71 0 1.7 4.3 0.00 0.00 0.00 64 1015.5
20260507171539 71 0 1.7 4.3 0.00 0.00 0.00 64 1015.5
20260507171039 70 0 1.7 4.3 0.00 0.00 0.00 65 1015.5
20260507170535 70 0 1.7 4.3 0.00 0.00 0.00 66 1015.5
20260507170034 69 0 1.7 4.3 0.00 0.00 0.00 68 1015.5
20260507165805 69 0 1.7 5.2 0.00 0.00 0.00 67 1015.5
20260507165029 69 0 0.9 5.2 0.00 0.00 0.00 66 1015.6
20260507164529 69 0 0.9 3.5 0.00 0.00 0.00 67 1015.6
20260507164029 68 0 1.7 4.3 0.00 0.00 0.00 69 1015.6
20260507163529 68 0 1.7 4.3 0.00 0.00 0.00 69 1015.7
20260507163300 68 0 1.7 4.3 0.00 0.00 0.00 69 1015.7
20260507162527 67 0 1.7 4.3 0.00 0.00 0.00 70 1015.7
20260507162027 67 0 1.7 4.3 0.00 0.00 0.00 72 1015.7
20260507161523 66 0 1.7 5.2 0.00 0.00 0.00 74 1015.7
20260507161021 65 0 1.7 5.2 0.00 0.00 0.00 74 1015.8
20260507160519 65 0 1.7 5.2 0.00 0.00 0.00 73 1015.8
20260507160019 65 0 0.9 3.5 0.00 0.00 0.00 72 1015.7
20260507155520 65 0 0.9 3.5 0.00 0.00 0.00 74 1015.8
20260507155020 64 0 0.9 3.5 0.00 0.00 0.00 74 1015.8
20260507154517 64 0 0.9 2.6 0.00 0.00 0.00 76 1015.8
20260507153513 64 0 0.9 2.6 0.00 0.00 0.00 77 1015.9
20260507153013 63 0 1.7 3.5 0.00 0.00 0.00 79 1015.9
20260507152514 63 0 1.7 3.5 0.00 0.00 0.00 78 1016.0
20260507152009 62 0 1.7 3.5 0.00 0.00 0.00 80 1015.9
20260507151509 62 0 1.7 3.5 0.00 0.00 0.00 79 1015.9
20260507151005 62 0 1.7 3.5 0.00 0.00 0.00 80 1015.9
20260507150505 61 0 1.7 3.5 0.00 0.00 0.00 81 1015.9
20260507150006 61 0 1.7 3.5 0.00 0.00 0.00 81 1015.9
20260507145506 60 0 1.7 3.5 0.00 0.00 0.00 81 1015.9
20260507145002 60 0 0.9 2.6 0.00 0.00 0.00 81 1015.9
20260507144733 60 0 0.0 1.7 0.00 0.00 0.00 81 1015.9
20260507143959 60 0 0.9 2.6 0.00 0.00 0.00 81 1015.9
20260507143458 60 0 0.9 2.6 0.00 0.00 0.00 82 1015.8
20260507142958 60 0 0.9 2.6 0.00 0.00 0.00 81 1015.8
20260507142458 60 0 0.0 0.9 0.00 0.00 0.00 82 1015.7
20260507141958 60 0 0.0 0.0 0.00 0.00 0.00 86 1015.6
20260507141457 59 0 0.0 0.0 0.00 0.00 0.00 88 1015.5
20260507140458 57 0 0.0 0.0 0.00 0.00 0.00 90 1015.5
20260507135956 56 0 0.0 0.0 0.00 0.00 0.00 90 1015.4
20260507135726 54 0 0.0 0.9 0.00 0.00 0.00 90 1015.4
20260507134950 53 0 0.0 0.9 0.00 0.00 0.00 90 1015.3
20260507134445 53 0 0.0 0.0 0.00 0.00 0.00 89 1015.3
20260507133946 53 0 0.0 0.0 0.00 0.00 0.00 90 1015.2
20260507133442 53 0 0.0 0.9 0.00 0.00 0.00 89 1015.1
20260507132939 53 0 0.0 1.7 0.00 0.00 0.00 89 1015.1
20260507132710 53 0 0.0 1.7 0.00 0.00 0.00 89 1015.1
20260507131934 53 0 0.9 1.7 0.00 0.00 0.00 89 1014.9
20260507131433 53 0 0.9 1.7 0.00 0.00 0.00 89 1014.9
20260507130933 53 0 0.0 0.9 0.00 0.00 0.00 89 1014.9
20260507130427 53 0 0.0 0.0 0.00 0.00 0.00 89 1014.8
20260507125928 53 0 0.0 0.0 0.00 0.00 0.00 89 1014.8
20260507125427 53 0 0.0 0.0 0.00 0.00 0.00 89 1014.8
20260507124928 53 0 0.0 0.0 0.00 0.00 0.00 89 1014.8
20260507124656 53 0 0.0 0.0 0.00 0.00 0.00 89 1014.8
20260507123922 53 0 0.0 0.0 0.00 0.00 0.00 89 1014.7
20260507123422 53 0 0.0 0.0 0.00 0.00 0.00 88 1014.8
20260507122922 53 0 0.0 0.0 0.00 0.00 0.00 88 1014.8
20260507122423 53 0 0.0 0.0 0.00 0.00 0.00 88 1014.8
20260507122153 53 0 0.0 0.0 0.00 0.00 0.00 88 1014.8
20260507121416 53 0 0.0 0.0 0.00 0.00 0.00 88 1014.8
20260507121148 53 0 0.0 0.0 0.00 0.00 0.00 88 1014.9
20260507120415 53 0 0.0 0.0 0.00 0.00 0.00 88 1014.9
20260507115910 53 0 0.0 0.0 0.00 0.00 0.00 88 1014.9
20260507115410 53 0 0.0 0.0 0.00 0.00 0.00 88 1014.9
20260507114909 53 0 0.0 0.0 0.00 0.00 0.00 88 1014.9
20260507114636 53 0 0.0 0.0 0.00 0.00 0.00 87 1014.9
20260507114134 53 0 0.0 0.0 0.00 0.00 0.00 87 1014.8
20260507113403 54 0 0.0 0.0 0.00 0.00 0.00 87 1014.8
20260507112858 54 0 0.0 0.0 0.00 0.00 0.00 87 1014.8
20260507112358 54 0 0.0 0.0 0.00 0.00 0.00 87 1014.9
20260507111859 54 0 0.0 0.0 0.00 0.00 0.00 87 1014.9
20260507111358 54 0 0.0 0.0 0.00 0.00 0.00 88 1015.1
20260507110857 54 0 0.0 0.0 0.00 0.00 0.00 87 1014.9
20260507110629 54 0 0.0 0.0 0.00 0.00 0.00 87 1014.9
20260507105857 54 0 0.0 0.0 0.00 0.00 0.00 87 1015.1
20260507105352 54 0 0.0 0.0 0.00 0.00 0.00 87 1015.1
20260507104853 54 0 0.0 0.0 0.00 0.00 0.00 87 1015.2
20260507104622 54 0 0.0 0.0 0.00 0.00 0.00 87 1015.2
20260507103847 54 0 0.0 0.0 0.00 0.00 0.00 87 1015.2
20260507103347 54 0 0.0 0.0 0.00 0.00 0.00 86 1015.3
20260507102846 54 0 0.0 0.0 0.00 0.00 0.00 86 1015.3
20260507102335 54 0 0.0 0.0 0.00 0.00 0.00 86 1015.3
20260507102106 54 0 0.0 0.0 0.00 0.00 0.00 86 1015.3
20260507101335 54 0 0.0 0.0 0.00 0.00 0.00 86 1015.3
20260507100830 54 0 0.0 0.0 0.00 0.00 0.00 85 1015.3
20260507100330 55 0 0.0 0.0 0.00 0.00 0.00 86 1015.4
20260507095323 55 0 0.0 0.0 0.00 0.00 0.00 86 1015.4
20260507094824 55 0 0.0 0.0 0.00 0.00 0.00 86 1015.4
20260507094323 55 0 0.0 0.0 0.00 0.00 0.00 85 1015.5
20260507093819 55 0 0.0 0.0 0.00 0.00 0.00 85 1015.5
20260507093319 55 0 0.0 0.0 0.00 0.00 0.00 85 1015.6
20260507092817 55 0 0.0 0.0 0.00 0.00 0.00 84 1015.7
20260507092311 55 0 0.0 0.0 0.00 0.00 0.00 84 1015.8
20260507091811 55 0 0.0 0.0 0.00 0.00 0.00 84 1015.9
20260507091311 55 0 0.0 0.0 0.00 0.00 0.00 84 1015.9
20260507090811 55 0 0.0 0.0 0.00 0.00 0.00 84 1015.9
20260507090309 56 0 0.0 0.0 0.00 0.00 0.00 84 1016.0
20260507085803 56 0 0.0 0.0 0.00 0.00 0.00 84 1016.0
20260507085306 56 0 0.0 0.0 0.00 0.00 0.00 83 1016.1
20260507084803 56 0 0.0 0.0 0.00 0.00 0.00 84 1016.2
20260507084301 56 0 0.0 0.0 0.00 0.00 0.00 84 1016.2
20260507083801 56 0 0.0 0.0 0.00 0.00 0.00 83 1016.2
20260507083256 56 0 0.0 0.0 0.00 0.00 0.00 83 1016.2
20260507082755 56 0 0.0 0.0 0.00 0.00 0.00 83 1016.2
20260507082255 56 0 0.0 0.0 0.00 0.00 0.00 83 1016.2
20260507081751 56 0 0.0 0.0 0.00 0.00 0.00 82 1016.3
20260507081249 56 0 0.0 0.0 0.00 0.00 0.00 83 1016.3
20260507080750 57 0 0.0 0.0 0.00 0.00 0.00 82 1016.4
20260507080243 57 0 0.0 0.0 0.00 0.00 0.00 82 1016.4
20260507075744 57 0 0.0 0.0 0.00 0.00 0.00 82 1016.3
20260507075515 57 0 0.0 0.0 0.00 0.00 0.00 82 1016.2
20260507075008 57 0 0.0 0.0 0.00 0.00 0.00 82 1016.4
20260507074238 57 0 0.0 0.0 0.00 0.00 0.00 81 1016.4
20260507073734 57 0 0.0 0.0 0.00 0.00 0.00 81 1016.4
20260507073234 58 0 0.0 0.0 0.00 0.00 0.00 81 1016.3
20260507073005 58 0 0.0 0.0 0.00 0.00 0.00 81 1016.4
20260507072234 58 0 0.0 0.0 0.00 0.00 0.00 81 1016.4
20260507071735 58 0 0.0 0.0 0.00 0.00 0.00 81 1016.3
20260507071233 58 0 0.0 0.0 0.00 0.00 0.00 80 1016.4
20260507070731 58 0 0.0 0.0 0.00 0.00 0.00 80 1016.4
20260507070230 58 0 0.0 0.0 0.00 0.00 0.00 80 1016.4
20260507065725 58 0 0.0 0.0 0.00 0.00 0.00 80 1016.5
20260507065225 58 0 0.0 0.0 0.00 0.00 0.00 79 1016.5
20260507064725 59 0 0.0 0.0 0.00 0.00 0.00 78 1016.6
20260507064223 59 0 0.0 0.0 0.00 0.00 0.00 78 1016.7
20260507063722 59 0 0.0 0.9 0.00 0.00 0.00 77 1016.7
20260507063454 59 0 0.0 0.9 0.00 0.00 0.00 77 1016.7
20260507062722 59 0 0.0 0.0 0.00 0.00 0.00 77 1016.7
20260507062218 60 0 0.0 0.0 0.00 0.00 0.00 77 1016.6
20260507061948 60 0 0.0 0.0 0.00 0.00 0.00 76 1016.6
20260507061217 60 0 0.0 0.0 0.00 0.00 0.00 76 1016.7
20260507060718 60 0 0.0 0.9 0.00 0.00 0.00 75 1016.6
20260507060216 61 0 0.0 0.9 0.00 0.00 0.00 75 1016.6
20260507055711 61 0 0.0 0.9 0.00 0.00 0.00 74 1016.7
20260507054711 62 0 0.0 0.0 0.00 0.00 0.00 73 1016.6
20260507054442 62 0 0.0 0.0 0.00 0.00 0.00 72 1016.7
20260507053942 62 0 0.0 0.9 0.00 0.00 0.00 72 1016.7
20260507053205 62 0 0.0 0.9 0.00 0.00 0.00 72 1016.7
20260507052705 62 0 0.0 1.7 0.00 0.00 0.00 71 1016.6
20260507052205 62 0 0.9 3.5 0.00 0.00 0.00 71 1016.5
20260507051933 62 0 0.9 3.5 0.00 0.00 0.00 71 1016.5
20260507051201 63 0 1.7 3.5 0.00 0.00 0.00 71 1016.6
20260507050701 63 0 0.9 3.5 0.00 0.00 0.00 71 1016.5
20260507050201 63 0 0.9 3.5 0.00 0.00 0.00 71 1016.5
20260507045700 63 0 0.9 4.3 0.00 0.00 0.00 70 1016.4
20260507045155 63 0 1.7 4.3 0.00 0.00 0.00 70 1016.4
20260507044655 63 0 1.7 3.5 0.00 0.00 0.00 70 1016.4
20260507044154 64 0 1.7 3.5 0.00 0.00 0.00 69 1016.4
20260507043649 64 0 1.7 3.5 0.00 0.00 0.00 69 1016.4
20260507043150 64 0 2.6 3.5 0.00 0.00 0.00 69 1016.4
20260507042649 64 0 1.7 4.3 0.00 0.00 0.00 69 1016.3
20260507042144 64 0 1.7 4.3 0.00 0.00 0.00 68 1016.3
20260507041913 64 0 1.7 4.3 0.00 0.00 0.00 68 1016.4
20260507041143 65 0 2.6 4.3 0.00 0.00 0.00 67 1016.3
20260507040637 65 0 2.6 4.3 0.00 0.00 0.00 66 1016.2
20260507040137 65 0 1.7 5.2 0.00 0.00 0.00 66 1016.2
20260507035631 65 0 1.7 5.2 0.00 0.00 0.00 65 1016.1
20260507035403 65 0 1.7 3.5 0.00 0.00 0.00 65 1016.0
20260507034630 65 0 0.9 3.5 0.00 0.00 0.00 65 1016.0
20260507034130 65 0 0.9 4.3 0.00 0.00 0.00 66 1015.9
20260507033627 65 0 0.9 4.3 0.00 0.00 0.00 67 1015.9
20260507033127 66 0 0.9 4.3 0.00 0.00 0.00 67 1015.9
20260507032626 66 0 0.9 4.3 0.00 0.00 0.00 67 1015.8
20260507032126 66 0 1.7 5.2 0.00 0.00 0.00 67 1015.7
20260507031853 66 0 1.7 5.2 0.00 0.00 0.00 66 1015.7
20260507031121 66 0 0.9 3.5 0.00 0.00 0.00 65 1015.6
20260507030621 67 0 0.9 5.2 0.00 0.00 0.00 65 1015.6
20260507030115 67 0 2.6 7.8 0.00 0.00 0.00 63 1015.6
20260507025612 67 0 3.5 7.8 0.00 0.00 0.00 63 1015.5
20260507025113 67 0 2.6 7.8 0.00 0.00 0.00 63 1015.5
20260507024114 68 0 2.6 7.8 0.00 0.00 0.00 62 1015.3
20260507023107 68 0 2.6 5.2 0.00 0.00 0.00 61 1015.3
20260507022606 69 0 2.6 7.0 0.00 0.00 0.00 60 1015.1
20260507022102 69 0 2.6 7.0 0.00 0.00 0.00 60 1015.1
20260507021600 70 0 2.6 7.8 0.00 0.00 0.00 59 1015.1
20260507021102 70 0 2.6 7.8 0.00 0.00 0.00 58 1015.1
20260507020555 71 0 3.5 7.8 0.00 0.00 0.00 58 1014.9
20260507020054 71 0 2.6 7.8 0.00 0.00 0.00 57 1015.1
20260507015826 71 0 2.6 7.0 0.00 0.00 0.00 57 1014.9
20260507015051 71 0 3.5 7.8 0.00 0.00 0.00 57 1014.9
20260507014548 71 0 3.5 8.7 0.00 0.00 0.00 56 1014.8
20260507014049 72 0 4.3 8.7 0.00 0.00 0.00 56 1014.8
20260507013819 72 0 3.5 8.7 0.00 0.00 0.00 55 1014.8